| time (UTC) | temp F | wind direction | speed MPH | gust MPH | rain 1hr in | rain 24hr in | rain mn in | humidity % | barometer mb |
| 20260504202403 | 63 | 318 | 25.0 | 35.0 | 0.00 | 0.00 | 0.00 | 33 | 1003.2 |
| 20260504201904 | 63 | 308 | 24.0 | 30.0 | 0.00 | 0.00 | 0.00 | 32 | 1003.4 |
| 20260504201404 | 63 | 331 | 25.0 | 33.0 | 0.00 | 0.00 | 0.00 | 31 | 1003.3 |
| 20260504200903 | 64 | 311 | 26.0 | 35.0 | 0.00 | 0.00 | 0.00 | 33 | 1003.2 |
| 20260504200403 | 65 | 305 | 25.0 | 32.0 | 0.00 | 0.00 | 0.00 | 33 | 1003.0 |
| 20260504195903 | 65 | 319 | 25.0 | 31.0 | 0.00 | 0.00 | 0.00 | 34 | 1003.0 |
| 20260504195403 | 65 | 308 | 24.0 | 31.0 | 0.00 | 0.00 | 0.00 | 34 | 1002.8 |
| 20260504194904 | 65 | 331 | 24.0 | 32.0 | 0.00 | 0.00 | 0.00 | 36 | 1002.9 |
| 20260504194403 | 65 | 321 | 20.0 | 31.0 | 0.00 | 0.00 | 0.00 | 35 | 1002.9 |
| 20260504193904 | 65 | 312 | 25.0 | 32.0 | 0.00 | 0.00 | 0.00 | 36 | 1003.1 |
| 20260504193403 | 65 | 293 | 22.0 | 30.0 | 0.00 | 0.00 | 0.00 | 35 | 1002.9 |
| 20260504192903 | 65 | 309 | 23.0 | 31.0 | 0.00 | 0.00 | 0.00 | 35 | 1002.8 |
| 20260504192403 | 66 | 313 | 25.0 | 33.0 | 0.00 | 0.00 | 0.00 | 35 | 1002.8 |
| 20260504191903 | 66 | 327 | 24.0 | 31.0 | 0.00 | 0.00 | 0.00 | 35 | 1002.8 |
| 20260504191403 | 66 | 336 | 18.0 | 31.0 | 0.00 | 0.00 | 0.00 | 35 | 1003.0 |
| 20260504190904 | 65 | 299 | 23.0 | 30.0 | 0.00 | 0.00 | 0.00 | 34 | 1002.8 |
| 20260504190403 | 65 | 332 | 23.0 | 29.0 | 0.00 | 0.00 | 0.00 | 34 | 1002.9 |
| 20260504185403 | 65 | 337 | 25.0 | 35.0 | 0.00 | 0.00 | 0.00 | 34 | 1002.9 |
| 20260504183903 | 67 | 297 | 20.0 | 29.0 | 0.00 | 0.00 | 0.00 | 34 | 1002.7 |
| 20260504183403 | 66 | 318 | 18.0 | 26.0 | 0.00 | 0.00 | 0.00 | 35 | 1002.7 |
| 20260504182904 | 66 | 321 | 21.0 | 28.0 | 0.00 | 0.00 | 0.00 | 34 | 1002.8 |
| 20260504182403 | 66 | 311 | 21.0 | 28.0 | 0.00 | 0.00 | 0.00 | 35 | 1002.7 |
| 20260504181903 | 65 | 314 | 16.0 | 25.0 | 0.00 | 0.00 | 0.00 | 36 | 1002.6 |
| 20260504181403 | 66 | 321 | 21.0 | 30.0 | 0.00 | 0.00 | 0.00 | 36 | 1002.6 |
| 20260504180903 | 66 | 300 | 21.0 | 26.0 | 0.00 | 0.00 | 0.00 | 37 | 1002.3 |
| 20260504180403 | 65 | 322 | 21.0 | 29.0 | 0.00 | 0.00 | 0.00 | 37 | 1002.4 |
| 20260504175904 | 65 | 316 | 20.0 | 29.0 | 0.00 | 0.00 | 0.00 | 37 | 1002.2 |
| 20260504175404 | 65 | 314 | 18.0 | 26.0 | 0.00 | 0.00 | 0.00 | 38 | 1002.1 |
| 20260504174903 | 65 | 315 | 24.0 | 33.0 | 0.00 | 0.00 | 0.00 | 37 | 1002.2 |
| 20260504174403 | 66 | 343 | 19.0 | 26.0 | 0.00 | 0.00 | 0.00 | 37 | 1002.0 |
| 20260504173904 | 66 | 323 | 17.0 | 25.0 | 0.00 | 0.00 | 0.00 | 37 | 1002.0 |
| 20260504172903 | 65 | 310 | 15.0 | 25.0 | 0.00 | 0.00 | 0.00 | 38 | 1002.0 |
| 20260504171903 | 65 | 348 | 18.0 | 25.0 | 0.00 | 0.00 | 0.00 | 38 | 1002.1 |
| 20260504170403 | 64 | 321 | 16.0 | 24.0 | 0.00 | 0.00 | 0.00 | 39 | 1002.0 |
| 20260504160403 | 63 | 338 | 17.0 | 21.0 | 0.00 | 0.00 | 0.00 | 42 | 1001.3 |
| 20260504140903 | 64 | 299 | 18.0 | 26.0 | 0.00 | 0.00 | 0.00 | 52 | 1000.3 |
| 20260504140403 | 64 | 293 | 20.0 | 25.0 | 0.00 | 0.00 | 0.00 | 51 | 1000.3 |
| 20260504130403 | 59 | 239 | 14.0 | 20.0 | 0.00 | 0.00 | 0.00 | 57 | 999.5 |
| 20260504110403 | 53 | 223 | 10.0 | 17.0 | 0.00 | 0.00 | 0.00 | 62 | 1000.1 |
| 20260504100403 | 53 | 210 | 10.0 | 15.0 | 0.00 | 0.00 | 0.00 | 60 | 1000.6 |
| 20260504081904 | 54 | 209 | 12.0 | 18.0 | 0.00 | 0.00 | 0.00 | 57 | 1001.5 |
| 20260504081403 | 53 | 204 | 10.0 | 15.0 | 0.00 | 0.00 | 0.00 | 57 | 1001.5 |
| 20260504080903 | 53 | 206 | 11.0 | 18.0 | 0.00 | 0.00 | 0.00 | 57 | 1001.8 |
| 20260504080403 | 53 | 210 | 12.0 | 16.0 | 0.00 | 0.00 | 0.00 | 58 | 1001.9 |
| 20260504050403 | 58 | 207 | 8.0 | 12.0 | 0.00 | 0.00 | 0.00 | 48 | 1004.2 |
| 20260504045903 | 58 | 205 | 8.0 | 12.0 | 0.00 | 0.00 | 0.00 | 48 | 1004.2 |
| 20260504045404 | 58 | 205 | 8.0 | 12.0 | 0.00 | 0.00 | 0.00 | 48 | 1004.3 |
| 20260504044903 | 57 | 206 | 8.0 | 10.0 | 0.00 | 0.00 | 0.00 | 49 | 1004.4 |
| 20260504044403 | 58 | 200 | 7.0 | 10.0 | 0.00 | 0.00 | 0.00 | 48 | 1004.4 |
| 20260504043903 | 58 | 205 | 8.0 | 12.0 | 0.00 | 0.00 | 0.00 | 48 | 1004.5 |
| 20260504043404 | 59 | 201 | 7.0 | 10.0 | 0.00 | 0.00 | 0.00 | 47 | 1004.5 |
| 20260504042404 | 60 | 205 | 7.0 | 10.0 | 0.00 | 0.00 | 0.00 | 45 | 1004.7 |
| 20260504041403 | 60 | 206 | 8.0 | 12.0 | 0.00 | 0.00 | 0.00 | 45 | 1004.8 |
| 20260504040904 | 61 | 207 | 8.0 | 12.0 | 0.00 | 0.00 | 0.00 | 44 | 1004.9 |
| 20260504040403 | 61 | 209 | 8.0 | 12.0 | 0.00 | 0.00 | 0.00 | 43 | 1005.1 |
| 20260504035903 | 61 | 212 | 8.0 | 12.0 | 0.00 | 0.00 | 0.00 | 44 | 1005.2 |
| 20260504035403 | 60 | 214 | 6.0 | 9.0 | 0.00 | 0.00 | 0.00 | 45 | 1005.3 |
| 20260504034903 | 59 | 219 | 6.0 | 9.0 | 0.00 | 0.00 | 0.00 | 46 | 1005.4 |
| 20260504034404 | 59 | 231 | 6.0 | 7.0 | 0.00 | 0.00 | 0.00 | 46 | 1005.6 |
| 20260504033403 | 61 | 224 | 5.0 | 9.0 | 0.00 | 0.00 | 0.00 | 43 | 1005.7 |
| 20260504032903 | 60 | 221 | 6.0 | 10.0 | 0.00 | 0.00 | 0.00 | 44 | 1005.8 |
| 20260504032404 | 60 | 211 | 6.0 | 9.0 | 0.00 | 0.00 | 0.00 | 45 | 1005.8 |
| 20260504031903 | 58 | 215 | 6.0 | 10.0 | 0.00 | 0.00 | 0.00 | 46 | 1006.0 |
| 20260504031404 | 56 | 213 | 6.0 | 10.0 | 0.00 | 0.00 | 0.00 | 50 | 1006.0 |
| 20260504030903 | 54 | 236 | 6.0 | 8.0 | 0.00 | 0.00 | 0.00 | 52 | 1006.2 |
| 20260504030403 | 54 | 238 | 6.0 | 6.0 | 0.00 | 0.00 | 0.00 | 51 | 1006.2 |
| 20260504025903 | 55 | 238 | 6.0 | 8.0 | 0.00 | 0.00 | 0.00 | 51 | 1006.2 |
| 20260504025403 | 55 | 234 | 5.0 | 7.0 | 0.00 | 0.00 | 0.00 | 51 | 1006.2 |
| 20260504024903 | 54 | 229 | 6.0 | 7.0 | 0.00 | 0.00 | 0.00 | 52 | 1006.2 |
| 20260504024403 | 54 | 242 | 5.0 | 6.0 | 0.00 | 0.00 | 0.00 | 51 | 1006.2 |
| 20260504023904 | 54 | 242 | 6.0 | 6.0 | 0.00 | 0.00 | 0.00 | 51 | 1006.2 |
| 20260504023403 | 55 | 242 | 5.0 | 6.0 | 0.00 | 0.00 | 0.00 | 50 | 1006.2 |
| 20260504022904 | 55 | 242 | 6.0 | 6.0 | 0.00 | 0.00 | 0.00 | 49 | 1006.2 |
| 20260504022403 | 56 | 238 | 7.0 | 9.0 | 0.00 | 0.00 | 0.00 | 48 | 1006.0 |
| 20260504021904 | 56 | 236 | 6.0 | 9.0 | 0.00 | 0.00 | 0.00 | 48 | 1005.9 |
| 20260504021403 | 56 | 242 | 5.0 | 6.0 | 0.00 | 0.00 | 0.00 | 48 | 1005.9 |
| 20260504020903 | 56 | 242 | 5.0 | 6.0 | 0.00 | 0.00 | 0.00 | 48 | 1006.0 |
| 20260504020403 | 57 | 242 | 6.0 | 8.0 | 0.00 | 0.00 | 0.00 | 48 | 1006.1 |
| 20260504015903 | 57 | 234 | 6.0 | 7.0 | 0.00 | 0.00 | 0.00 | 47 | 1006.1 |
| 20260504015404 | 57 | 236 | 5.0 | 6.0 | 0.00 | 0.00 | 0.00 | 45 | 1006.2 |
| 20260504013904 | 61 | 236 | 5.0 | 6.0 | 0.00 | 0.00 | 0.00 | 39 | 1006.3 |
| 20260504013404 | 63 | 246 | 6.0 | 7.0 | 0.00 | 0.00 | 0.00 | 37 | 1006.3 |
| 20260504012904 | 65 | 235 | 6.0 | 8.0 | 0.00 | 0.00 | 0.00 | 35 | 1006.3 |
| 20260504012403 | 66 | 258 | 6.0 | 9.0 | 0.00 | 0.00 | 0.00 | 33 | 1006.3 |
| 20260504011903 | 66 | 257 | 5.0 | 8.0 | 0.00 | 0.00 | 0.00 | 33 | 1006.3 |
| 20260504011403 | 67 | 267 | 7.0 | 9.0 | 0.00 | 0.00 | 0.00 | 33 | 1006.3 |
| 20260504010903 | 67 | 266 | 7.0 | 12.0 | 0.00 | 0.00 | 0.00 | 32 | 1006.3 |
| 20260504010404 | 68 | 265 | 7.0 | 12.0 | 0.00 | 0.00 | 0.00 | 32 | 1006.2 |
| 20260504005904 | 68 | 266 | 8.0 | 12.0 | 0.00 | 0.00 | 0.00 | 31 | 1006.2 |
| 20260504005403 | 69 | 262 | 10.0 | 13.0 | 0.00 | 0.00 | 0.00 | 32 | 1006.2 |
| 20260504004903 | 69 | 265 | 10.0 | 15.0 | 0.00 | 0.00 | 0.00 | 32 | 1006.3 |
| 20260504004404 | 70 | 270 | 8.0 | 12.0 | 0.00 | 0.00 | 0.00 | 32 | 1006.3 |
| 20260504003404 | 70 | 272 | 7.0 | 13.0 | 0.00 | 0.00 | 0.00 | 32 | 1006.2 |
| 20260504002903 | 70 | 280 | 12.0 | 17.0 | 0.00 | 0.00 | 0.00 | 31 | 1006.2 |
| 20260504002403 | 71 | 280 | 11.0 | 15.0 | 0.00 | 0.00 | 0.00 | 31 | 1006.3 |
| 20260504001903 | 71 | 261 | 9.0 | 16.0 | 0.00 | 0.00 | 0.00 | 31 | 1006.3 |
| 20260504001403 | 71 | 266 | 10.0 | 13.0 | 0.00 | 0.00 | 0.00 | 30 | 1006.3 |
| 20260504000904 | 71 | 269 | 13.0 | 20.0 | 0.00 | 0.00 | 0.00 | 29 | 1006.3 |
| 20260504000404 | 71 | 262 | 9.0 | 14.0 | 0.00 | 0.00 | 0.00 | 30 | 1006.4 |
| 20260503235903 | 71 | 273 | 12.0 | 15.0 | 0.00 | 0.00 | 0.00 | 31 | 1006.4 |
| 20260503235404 | 71 | 289 | 12.0 | 15.0 | 0.00 | 0.00 | 0.00 | 29 | 1006.4 |
| 20260503234903 | 71 | 301 | 12.0 | 16.0 | 0.00 | 0.00 | 0.00 | 29 | 1006.5 |
| 20260503234404 | 71 | 283 | 10.0 | 17.0 | 0.00 | 0.00 | 0.00 | 28 | 1006.4 |
| 20260503233903 | 71 | 280 | 12.0 | 16.0 | 0.00 | 0.00 | 0.00 | 27 | 1006.5 |
| 20260503233403 | 71 | 303 | 14.0 | 17.0 | 0.00 | 0.00 | 0.00 | 26 | 1006.6 |
| 20260503232903 | 72 | 294 | 17.0 | 21.0 | 0.00 | 0.00 | 0.00 | 26 | 1006.6 |
| 20260503231903 | 71 | 277 | 13.0 | 17.0 | 0.00 | 0.00 | 0.00 | 27 | 1006.6 |
| 20260503231403 | 72 | 296 | 14.0 | 18.0 | 0.00 | 0.00 | 0.00 | 29 | 1006.7 |
| 20260503230403 | 72 | 299 | 16.0 | 20.0 | 0.00 | 0.00 | 0.00 | 29 | 1006.8 |
| 20260503225904 | 72 | 293 | 13.0 | 20.0 | 0.00 | 0.00 | 0.00 | 28 | 1006.8 |
| 20260503225403 | 72 | 311 | 16.0 | 20.0 | 0.00 | 0.00 | 0.00 | 28 | 1006.9 |
| 20260503224904 | 72 | 309 | 13.0 | 20.0 | 0.00 | 0.00 | 0.00 | 29 | 1006.9 |
| 20260503224404 | 72 | 296 | 13.0 | 20.0 | 0.00 | 0.00 | 0.00 | 28 | 1006.9 |
| 20260503223903 | 72 | 310 | 17.0 | 22.0 | 0.00 | 0.00 | 0.00 | 29 | 1007.0 |
| 20260503223403 | 72 | 329 | 12.0 | 16.0 | 0.00 | 0.00 | 0.00 | 30 | 1006.9 |
| 20260503222903 | 72 | 302 | 13.0 | 18.0 | 0.00 | 0.00 | 0.00 | 31 | 1007.0 |
| 20260503222403 | 72 | 303 | 14.0 | 17.0 | 0.00 | 0.00 | 0.00 | 30 | 1007.0 |
| 20260503221903 | 72 | 261 | 13.0 | 20.0 | 0.00 | 0.00 | 0.00 | 30 | 1006.9 |
| 20260503221403 | 72 | 282 | 14.0 | 20.0 | 0.00 | 0.00 | 0.00 | 30 | 1007.0 |
| 20260503220903 | 71 | 288 | 8.0 | 16.0 | 0.00 | 0.00 | 0.00 | 31 | 1007.1 |
| 20260503220404 | 71 | 289 | 9.0 | 16.0 | 0.00 | 0.00 | 0.00 | 31 | 1007.2 |
| 20260503215403 | 71 | 314 | 5.0 | 18.0 | 0.00 | 0.00 | 0.00 | 32 | 1007.3 |
| 20260503214903 | 71 | 320 | 13.0 | 20.0 | 0.00 | 0.00 | 0.00 | 32 | 1007.3 |
| 20260503214404 | 71 | 311 | 8.0 | 20.0 | 0.00 | 0.00 | 0.00 | 33 | 1007.4 |
| 20260503213903 | 71 | 282 | 11.0 | 20.0 | 0.00 | 0.00 | 0.00 | 34 | 1007.3 |
| 20260503213403 | 71 | 300 | 11.0 | 18.0 | 0.00 | 0.00 | 0.00 | 33 | 1007.4 |
| 20260503212904 | 71 | 314 | 12.0 | 16.0 | 0.00 | 0.00 | 0.00 | 33 | 1007.5 |
| 20260503212403 | 70 | 333 | 13.0 | 18.0 | 0.00 | 0.00 | 0.00 | 33 | 1007.6 |
| 20260503211903 | 70 | 297 | 10.0 | 14.0 | 0.00 | 0.00 | 0.00 | 33 | 1007.7 |
| 20260503211403 | 70 | 267 | 12.0 | 23.0 | 0.00 | 0.00 | 0.00 | 31 | 1007.7 |
| 20260503210903 | 70 | 319 | 18.0 | 26.0 | 0.00 | 0.00 | 0.00 | 32 | 1007.8 |
| 20260503210404 | 70 | 315 | 17.0 | 22.0 | 0.00 | 0.00 | 0.00 | 31 | 1007.9 |
| 20260503205904 | 70 | 291 | 14.0 | 20.0 | 0.00 | 0.00 | 0.00 | 33 | 1007.8 |
| 20260503205403 | 70 | 315 | 14.0 | 20.0 | 0.00 | 0.00 | 0.00 | 34 | 1007.9 |
| 20260503204903 | 70 | 310 | 18.0 | 24.0 | 0.00 | 0.00 | 0.00 | 34 | 1008.1 |
| 20260503204403 | 70 | 337 | 14.0 | 23.0 | 0.00 | 0.00 | 0.00 | 33 | 1008.1 |
| 20260503203904 | 70 | 324 | 15.0 | 22.0 | 0.00 | 0.00 | 0.00 | 32 | 1008.3 |
| 20260503203403 | 70 | 320 | 11.0 | 20.0 | 0.00 | 0.00 | 0.00 | 33 | 1008.3 |
| 20260503202903 | 70 | 315 | 17.0 | 23.0 | 0.00 | 0.00 | 0.00 | 34 | 1008.2 |